Total_Precipitation_Accumulation
1.64 1.54 1.50 1.69 1.78 2.08 2.34 2.50 2.38 2.15 1.86 1.59 1.56 1.54 1.63 1.67 1.75 1.86 2.34 2.89 3.43 4.30 4.77 4.72 4.59 4.49 4.45 4.36 4.19 4.07 3.86 3.57 3.58 3.86 4.42 4.64 4.32 3.78 3.41 3.12 2.90 2.63 2.71
1.42 1.46 1.39 1.49 1.68 2.01 2.44 2.59 2.34 2.19 1.97 1.82 1.79 1.71 1.69 1.66 1.71 1.68 1.94 2.27 2.41 2.88 3.63 4.30 4.67 4.72 4.75 4.64 4.17 4.00 3.77 3.49 3.43 3.59 3.62 3.68 3.69 3.37 3.10 3.04 2.80 2.61 2.86
1.22 1.32 1.40 1.44 1.59 1.94 2.41 2.70 2.56 2.35 2.08 1.98 1.94 1.86 1.77 1.77 1.72 1.64 1.79 2.04 2.00 2.13 2.68 3.46 4.29 4.70 4.65 4.59 4.21 3.97 3.60 3.21 3.06 3.16 3.24 3.14 3.25 3.24 3.08 3.01 2.84 2.69 2.75
1.25 1.35 1.47 1.45 1.52 1.84 2.27 2.64 2.77 2.78 2.56 2.37 2.20 2.05 1.93 2.08 1.92 1.78 1.84 2.03 2.17 2.02 2.14 2.62 3.34 4.16 4.51 4.57 4.08 3.76 3.57 3.18 2.91 2.83 2.93 2.77 2.95 3.15 3.17 3.03 2.97 2.99 2.93
1.34 1.44 1.65 1.69 1.70 1.95 2.17 2.29 2.52 2.73 2.80 2.59 2.23 2.13 2.01 2.14 2.26 2.15 2.21 2.29 2.33 2.27 2.16 2.18 2.54 3.03 3.79 4.24 4.05 3.76 3.62 3.34 3.09 2.83 2.87 2.72 2.69 2.95 3.13 2.95 3.00 3.13 3.12
1.56 1.52 1.70 1.75 1.82 2.11 2.24 2.37 2.65 2.77 2.86 2.85 2.42 2.21 2.11 2.10 2.17 2.38 2.51 2.51 2.50 2.32 2.30 2.17 2.36 2.48 3.10 3.76 3.85 3.70 3.46 3.40 3.39 3.22 3.24 3.10 2.83 2.89 3.04 2.93 2.98 3.05 3.12
1.65 1.69 1.76 1.80 1.86 2.02 2.10 2.27 2.71 2.86 2.88 2.79 2.87 2.80 2.59 2.29 2.19 2.27 2.41 2.64 2.73 2.55 2.50 2.53 2.45 2.39 2.53 2.94 3.18 3.30 3.28 3.54 3.72 3.59 3.45 3.31 3.08 3.16 3.23 3.02 3.02 2.99 2.99
1.63 1.55 1.78 1.95 1.92 2.10 2.17 2.35 2.72 3.04 2.89 2.80 3.19 3.63 3.36 3.01 2.58 2.26 2.31 2.39 2.63 2.66 2.54 2.42 2.28 2.27 2.36 2.51 2.52 2.70 2.95 3.47 3.97 3.81 3.46 3.41 3.32 3.18 3.21 3.08 2.98 2.89 2.85
1.92 1.84 1.94 2.12 2.09 2.17 2.28 2.34 2.51 3.06 3.31 3.13 3.08 3.67 3.56 3.34 3.25 2.65 2.21 2.10 2.39 2.62 2.66 2.50 2.35 2.36 2.39 2.53 2.48 2.44 2.59 2.96 3.64 3.74 3.58 3.68 3.54 3.21 2.95 2.81 2.76 2.86 2.92
2.19 2.04 2.07 2.18 2.23 2.31 2.29 2.13 2.34 2.90 3.47 3.58 3.34 3.06 2.89 2.82 3.00 2.96 2.39 2.02 2.07 2.29 2.55 2.45 2.40 2.47 2.51 2.61 2.68 2.48 2.34 2.43 2.96 3.60 3.88 3.83 3.65 3.37 3.04 2.81 2.71 2.76 2.78
2.23 2.10 2.04 2.21 2.30 2.36 2.34 2.39 2.55 2.87 3.21 3.55 3.55 3.31 3.00 2.71 2.26 2.45 2.53 2.31 2.01 1.92 2.01 2.14 2.30 2.39 2.45 2.44 2.59 2.48 2.22 2.06 2.34 3.00 3.63 3.79 3.66 3.52 3.35 3.22 3.19 3.15 3.00
2.08 2.06 2.08 2.10 2.10 2.19 2.28 2.43 2.68 2.83 3.02 3.24 3.33 3.03 2.91 2.83 2.57 2.36 2.21 2.30 2.28 1.99 1.78 1.74 1.86 2.09 2.20 2.29 2.17 2.25 2.09 2.01 2.05 2.20 2.55 3.03 3.28 3.44 3.53 3.54 3.42 3.28 3.27
1.85 1.89 2.00 1.99 1.90 1.92 2.06 2.21 2.42 2.44 2.57 2.80 2.92 2.80 2.62 2.44 2.39 2.44 2.38 2.27 2.14 1.87 1.70 1.50 1.58 1.75 1.79 1.99 2.18 2.15 1.89 1.88 1.82 1.80 1.82 2.01 2.39 2.78 3.17 3.55 3.62 3.53 3.50
1.64 1.60 1.64 1.73 1.76 1.76 1.83 1.99 2.11 2.07 2.13 2.33 2.40 2.47 2.38 2.26 2.24 2.26 2.31 2.45 2.33 2.09 1.71 1.36 1.40 1.58 1.56 1.66 2.01 2.07 1.67 1.62 1.49 1.44 1.49 1.61 1.78 2.11 2.52 2.87 3.15 3.30 3.36
1.43 1.36 1.41 1.53 1.64 1.66 1.68 1.85 1.95 1.90 1.95 2.05 2.18 2.34 2.28 2.20 2.15 2.18 2.29 2.41 2.49 2.38 2.06 1.55 1.38 1.35 1.38 1.47 1.85 1.73 1.60 1.61 1.47 1.36 1.29 1.34 1.45 1.59 1.80 2.09 2.30 2.46 2.54
1.38 1.35 1.36 1.38 1.41 1.45 1.51 1.73 1.91 1.97 1.96 1.97 2.02 2.13 2.25 2.22 2.20 2.18 2.28 2.34 2.35 2.40 2.25 1.77 1.49 1.35 1.44 1.37 1.63 1.40 1.50 1.73 1.53 1.33 1.23 1.20 1.26 1.37 1.52 1.72 1.74 1.69 1.68
1.20 1.16 1.13 1.18 1.30 1.30 1.31 1.49 1.60 1.64 1.80 1.87 1.80 1.83 1.98 2.07 2.19 2.19 2.20 2.22 2.30 2.31 2.21 1.92 1.57 1.43 1.56 1.58 1.64 1.45 1.40 1.44 1.38 1.36 1.27 1.17 1.14 1.23 1.29 1.44 1.53 1.39 1.30
1.09 1.11 1.12 1.05 1.19 1.32 1.33 1.36 1.37 1.38 1.55 1.67 1.68 1.74 1.76 1.77 1.87 1.99 2.10 2.07 2.15 2.22 2.23 2.11 1.80 1.60 1.64 1.73 1.90 1.85 1.72 1.59 1.51 1.62 1.57 1.40 1.29 1.28 1.34 1.41 1.51 1.39 1.18
0.99 1.07 1.20 1.17 1.13 1.20 1.27 1.27 1.26 1.28 1.32 1.39 1.45 1.53 1.56 1.66 1.79 1.78 1.83 1.90 1.98 2.05 2.22 2.19 2.07 1.95 1.84 1.79 1.86 1.85 1.89 2.00 1.88 1.82 1.86 1.69 1.54 1.45 1.42 1.46 1.51 1.48 1.30
1.00 1.01 1.01 1.10 1.14 1.17 1.22 1.21 1.20 1.18 1.17 1.18 1.30 1.40 1.49 1.56 1.66 1.70 1.69 1.81 1.94 2.05 2.12 2.11 2.03 1.97 1.94 1.93 1.92 1.91 2.01 2.14 2.21 2.01 1.93 1.82 1.80 1.74 1.63 1.57 1.53 1.53 1.49
0.81 0.86 0.85 0.88 0.95 1.06 1.09 1.07 1.08 1.13 1.17 1.18 1.28 1.33 1.37 1.42 1.49 1.56 1.54 1.69 1.83 2.01 2.11 2.16 2.02 1.90 1.86 1.88 1.86 1.87 1.97 2.23 2.28 2.25 2.18 1.99 1.84 1.69 1.65 1.69 1.67 1.66 1.63
0.69 0.72 0.72 0.79 0.82 0.87 1.07 1.11 1.04 1.06 1.14 1.16 1.20 1.24 1.35 1.42 1.39 1.36 1.35 1.41 1.53 1.63 1.82 1.95 1.99 1.86 1.76 1.76 1.88 1.99 2.00 2.17 2.34 2.22 2.08 2.14 2.03 1.92 1.77 1.69 1.83 1.83 1.73
0.74 0.72 0.73 0.78 0.73 0.74 0.92 0.93 1.04 1.16 1.15 1.10 1.07 1.20 1.29 1.32 1.39 1.37 1.30 1.29 1.26 1.30 1.41 1.59 1.70 1.67 1.63 1.67 1.80 1.94 2.03 2.11 2.09 2.15 2.07 2.15 2.10 1.99 1.78 1.76 1.89 1.78 1.74
0.76 0.81 0.82 0.84 0.76 0.71 0.81 0.84 0.98 1.04 1.03 1.00 1.04 1.13 1.25 1.33 1.37 1.41 1.34 1.38 1.32 1.19 1.18 1.24 1.40 1.50 1.52 1.68 1.87 2.07 2.23 2.22 2.13 2.10 2.03 2.08 1.94 1.81 1.68 1.66 1.84 1.73 1.63
0.73 0.78 0.89 0.90 0.80 0.73 0.79 0.83 0.94 1.02 1.08 1.03 1.02 1.08 1.25 1.29 1.47 1.56 1.41 1.44 1.41 1.21 1.15 1.23 1.26 1.35 1.50 1.66 1.86 2.10 2.24 2.26 2.24 2.15 1.93 1.80 1.68 1.72 1.71 1.66 1.69 1.69 1.53
0.81 0.81 0.81 0.78 0.72 0.71 0.79 0.80 0.88 0.90 1.04 1.11 1.14 1.14 1.39 1.43 1.52 1.50 1.39 1.50 1.57 1.42 1.17 1.14 1.19 1.32 1.43 1.59 1.87 2.04 2.31 2.34 2.16 2.12 1.91 1.74 1.72 1.81 1.97 1.82 1.63 1.50 1.39